Theta_e
321 320 321 322 321 322 322 321 325 327 330 329 325 325 323 324 326 328 331 328 331 332 330 331 330 330 331 331 334 335 334 337 338 337 340 337 334 335 335 335 334 333 333 333 335 335 334 335 334 335 335 333 332 332 330 326 326 325 326 325 319 321 328 332 334 334 333 331 330 330 328 324 319 316 313 310 309 309 309 310 311 312 312 312 311 312 311 311 311 311 310 311 311 311 312 312 313
320 321 321 321 322 323 321 320 328 333 333 325 323 325 324 326 326 331 335 330 333 333 332 332 331 331 332 332 332 332 333 334 333 334 336 334 335 335 335 335 333 333 333 333 334 333 334 334 333 334 334 332 331 330 328 325 325 324 323 324 320 317 319 323 326 326 325 323 323 324 325 325 321 315 311 310 310 310 309 310 313 313 313 312 312 312 312 312 311 312 311 312 312 313 313 313 313
321 321 320 322 323 320 324 323 326 335 333 326 327 330 327 328 330 335 332 328 333 332 333 332 332 333 332 334 334 333 333 334 334 334 334 335 335 336 336 334 333 334 334 334 333 332 332 332 332 333 332 331 330 329 327 325 323 321 321 320 318 315 317 322 323 323 321 321 322 319 321 324 319 314 313 314 314 313 312 311 312 313 313 313 312 312 312 312 312 313 312 313 313 312 313 313 313
321 321 321 322 322 321 333 332 331 338 332 328 329 331 333 335 334 330 328 330 334 331 331 333 334 334 333 337 336 334 333 333 335 334 334 335 335 336 335 334 334 335 334 334 333 332 331 331 332 332 331 330 329 328 326 324 321 318 318 317 314 314 319 324 323 323 322 322 321 318 316 318 316 318 321 321 320 317 316 312 311 312 312 312 312 313 313 313 313 313 313 312 312 312 312 312 313
320 321 321 322 324 322 331 329 330 334 326 329 328 329 339 341 333 326 328 332 333 330 329 333 337 334 334 336 334 334 334 333 334 334 334 334 335 335 334 334 335 335 335 334 334 332 328 328 329 330 329 328 328 327 324 322 319 316 315 314 313 314 320 323 323 322 321 321 321 318 316 316 318 325 326 324 324 320 316 312 311 312 312 312 312 313 313 312 313 312 312 312 312 312 312 312 312
320 322 321 322 323 318 328 324 324 331 327 332 329 332 340 334 330 326 328 330 330 330 329 332 335 335 334 335 334 333 332 333 334 334 333 334 335 335 334 334 335 335 335 335 334 330 327 326 326 327 325 324 326 325 322 320 317 315 315 315 316 317 320 323 324 323 322 322 322 319 317 319 320 325 327 324 324 321 316 312 311 312 312 313 313 313 313 312 312 311 312 311 311 311 311 312 312
320 322 321 323 322 320 333 327 329 334 323 324 327 335 335 326 327 326 325 327 329 329 330 332 332 334 336 335 334 333 333 333 332 333 333 333 335 335 335 334 335 336 335 335 334 330 327 325 324 323 321 320 324 325 321 318 315 313 314 315 316 318 320 323 325 324 323 322 321 319 316 316 316 321 324 323 324 322 316 313 311 312 312 313 313 313 312 312 311 311 311 311 311 311 311 312 312
321 321 320 328 331 330 337 328 331 332 317 317 321 330 330 325 327 325 324 325 328 329 331 333 331 334 337 334 334 334 333 332 331 332 333 333 334 335 335 334 335 336 335 335 333 331 327 324 323 322 321 318 321 324 321 318 314 311 312 312 314 317 319 321 324 324 323 320 319 320 316 312 313 317 322 324 325 323 318 314 311 312 313 312 313 312 312 311 311 311 311 311 311 311 311 312 312
322 322 320 327 331 332 338 330 326 324 319 320 320 326 327 326 327 323 323 323 324 329 332 333 330 332 334 332 333 334 332 332 331 331 333 333 333 334 335 334 334 335 335 335 333 330 327 324 322 322 321 319 320 324 322 317 314 311 311 310 311 314 315 317 321 322 321 319 317 317 314 311 312 315 320 324 325 325 319 314 311 312 312 312 312 311 311 311 311 311 311 311 311 311 312 312 312
321 322 320 327 331 327 329 328 325 321 319 319 319 325 326 327 327 321 322 323 323 328 332 331 330 330 333 333 333 333 332 332 330 331 332 331 333 333 334 333 333 333 333 333 331 328 326 323 321 321 320 320 322 324 323 317 313 312 310 310 311 312 313 314 316 317 316 316 314 312 312 312 313 314 317 321 323 322 317 314 312 311 312 312 311 311 311 310 311 311 311 311 311 311 311 312 312
321 321 321 329 333 325 326 327 328 329 322 318 319 323 326 327 325 321 322 323 324 327 329 329 331 331 333 332 333 333 331 332 330 330 331 331 332 331 332 332 331 332 331 330 329 326 325 324 322 320 319 321 324 324 324 318 312 311 310 309 311 312 313 314 314 314 314 314 312 311 312 313 314 315 315 318 321 318 316 314 312 311 312 312 311 310 310 310 311 311 311 311 311 311 311 311 311
321 324 330 333 330 326 329 330 330 336 331 324 323 321 325 327 324 323 323 323 323 326 327 329 330 331 333 332 333 333 330 331 332 331 331 330 331 331 331 330 330 330 330 330 329 327 326 325 322 319 318 322 325 325 324 319 313 311 310 310 312 315 316 316 314 313 314 313 312 312 313 313 315 318 316 317 318 317 317 313 311 312 311 311 311 310 311 311 311 310 311 311 311 312 312 312 312
321 326 332 328 326 326 327 327 327 330 330 326 322 320 324 326 324 323 322 323 322 324 325 326 327 331 337 334 331 333 331 330 332 332 332 331 331 330 331 330 330 329 329 329 329 327 324 323 321 319 318 323 326 326 324 320 315 311 310 312 314 318 319 317 314 313 312 312 311 312 312 312 314 317 317 317 317 317 316 312 311 312 311 311 310 310 311 311 311 311 311 311 312 312 312 312 313
321 324 329 326 325 328 327 327 324 322 325 325 319 317 322 324 324 323 322 324 322 321 321 321 327 329 332 333 331 331 330 330 331 332 332 332 332 331 331 330 330 329 329 328 328 327 323 319 318 317 318 323 326 326 325 320 316 313 310 312 314 318 320 317 313 312 310 310 310 309 310 310 312 313 314 316 316 316 314 312 312 312 311 310 310 311 311 311 311 311 311 311 312 312 312 313 313
321 321 328 330 325 327 326 326 327 324 325 324 319 318 320 321 323 322 322 324 322 320 321 322 328 325 322 329 329 326 329 329 329 331 332 332 332 332 332 331 331 330 329 328 328 327 324 319 316 315 319 323 325 326 325 321 317 314 310 311 314 316 318 315 313 312 309 309 308 308 309 309 311 311 312 313 313 313 312 312 312 311 311 310 310 310 310 311 311 311 311 311 312 312 312 313 313
322 321 327 330 325 326 325 323 325 327 326 320 317 320 320 321 321 322 322 323 322 321 323 325 329 324 317 322 323 323 328 329 328 330 331 332 332 332 332 332 332 331 330 328 327 326 324 322 318 315 318 322 324 325 325 322 317 315 311 309 312 314 314 313 312 312 310 308 308 308 308 309 310 311 311 311 312 312 312 312 311 311 311 310 310 310 311 311 311 311 311 311 312 312 312 313 313
320 323 330 330 326 327 326 324 323 326 327 318 315 320 321 322 320 321 322 322 323 322 324 324 325 323 319 320 322 323 325 327 328 328 330 332 332 332 332 332 332 332 331 330 328 325 323 322 321 317 318 321 322 323 324 322 318 315 313 309 310 312 312 312 311 311 310 309 308 308 308 309 310 311 311 311 311 311 311 311 311 311 310 310 310 310 311 311 311 311 311 311 312 312 312 313 313
322 329 331 328 329 328 325 325 320 320 323 317 316 319 321 323 320 320 322 322 323 322 321 321 322 322 320 320 322 323 323 326 327 327 328 329 330 331 332 332 332 332 331 330 329 326 323 322 321 319 318 320 322 322 323 323 318 315 313 310 309 310 311 311 311 310 309 309 308 307 308 309 310 311 311 311 311 311 311 311 311 311 310 310 310 310 311 311 311 311 311 311 312 312 312 313 313
325 330 328 328 332 326 320 320 317 316 318 315 316 318 319 322 320 321 324 323 322 323 322 320 321 321 320 320 322 323 323 325 326 326 327 325 326 327 329 331 331 331 330 330 329 327 324 322 322 320 319 320 321 321 322 323 319 315 313 311 308 308 309 310 310 310 310 309 308 307 307 308 310 310 311 311 311 311 311 311 311 311 310 310 310 311 311 311 311 311 312 312 312 312 312 313 313
322 325 328 331 328 321 317 317 316 317 316 315 316 318 318 320 320 322 323 322 322 324 323 321 321 320 320 321 321 322 322 323 324 325 325 324 323 322 324 326 327 328 328 329 329 328 326 323 322 321 320 319 321 321 321 323 320 316 314 311 309 308 308 309 309 309 310 309 309 308 307 308 309 310 311 311 311 311 311 311 311 310 310 310 310 311 311 311 312 312 312 312 312 312 313 313 313
321 324 330 329 321 320 319 315 316 316 315 316 316 317 318 318 320 321 320 323 325 323 322 322 322 321 321 321 320 321 321 322 323 323 323 323 322 321 321 321 323 324 326 328 329 329 328 325 323 321 320 319 320 321 320 322 321 317 314 312 309 308 308 308 309 309 309 309 309 308 308 308 308 309 310 311 311 311 311 311 311 310 310 310 310 311 311 311 312 312 312 312 312 313 313 313 312
322 322 324 322 319 321 319 315 316 315 315 315 315 316 318 317 318 320 320 325 327 322 321 321 321 322 322 320 320 320 321 321 322 321 320 320 320 319 319 319 321 323 325 327 328 329 328 326 324 321 320 319 320 320 320 322 321 318 314 312 309 308 308 308 309 309 309 309 309 309 308 308 307 308 309 310 311 311 311 311 311 311 310 311 310 311 311 311 312 312 312 312 313 313 313 313 312
323 322 319 319 319 320 318 314 316 315 315 314 314 316 317 316 316 317 318 321 322 320 320 319 319 321 321 320 320 320 321 321 321 320 319 319 318 317 317 318 319 320 323 324 326 328 328 328 325 322 321 320 319 320 321 322 321 320 317 313 310 309 308 308 309 309 309 309 309 309 309 309 308 308 308 309 310 311 311 311 311 311 311 311 311 311 311 311 312 312 313 313 313 313 313 313 313
321 322 319 319 319 319 317 315 315 316 316 315 315 316 317 316 317 315 316 319 320 320 319 318 318 319 320 320 320 321 321 321 320 320 320 319 319 318 318 318 318 319 321 322 324 326 327 328 326 323 321 321 320 319 321 322 322 321 319 315 311 309 309 308 308 309 309 309 309 309 309 309 308 308 308 308 309 310 311 311 311 311 311 311 311 311 311 312 312 312 313 313 313 313 313 314 313
320 322 319 318 319 318 317 316 316 317 316 316 317 317 317 317 317 315 316 319 319 318 318 317 317 318 319 320 320 320 321 321 321 321 321 321 320 321 320 320 320 320 320 321 323 325 326 327 326 324 322 321 321 320 320 321 322 321 320 317 312 309 309 308 308 309 309 309 309 309 309 309 309 308 308 308 308 309 310 311 311 311 311 311 311 311 311 312 312 312 313 313 313 314 314 314 314
320 319 318 318 319 318 317 316 316 318 318 317 318 318 318 317 317 318 318 318 318 318 317 317 317 317 318 319 319 319 319 320 321 321 321 321 322 322 321 321 320 318 318 319 321 324 326 326 326 324 322 321 321 321 321 321 322 321 319 318 313 309 309 308 308 309 309 309 308 308 309 309 308 308 308 308 308 308 309 310 310 311 311 311 311 311 312 312 313 313 313 314 314 314 315 314 314
320 318 318 318 319 318 317 316 316 318 319 318 320 321 320 318 318 320 320 318 319 318 318 318 318 318 317 317 318 318 319 318 319 321 322 322 322 321 320 320 319 317 317 318 318 322 325 326 325 324 322 321 322 322 322 322 322 321 319 318 315 311 309 309 309 309 309 308 308 308 308 308 308 308 308 308 308 308 308 309 310 310 311 311 312 312 313 313 313 313 314 314 314 315 315 314 315
320 319 319 319 318 317 317 317 317 318 319 319 320 320 319 319 319 320 320 319 319 319 319 319 319 319 318 318 318 317 318 318 319 320 321 321 321 320 320 319 318 317 317 316 316 320 325 326 325 324 321 321 322 323 322 322 322 320 319 317 316 312 309 309 309 310 309 308 308 308 308 308 308 308 308 308 308 308 308 308 309 309 310 311 312 313 313 313 313 313 313 314 314 314 315 315 316
320 320 323 323 319 320 319 317 318 318 319 319 319 320 320 320 320 319 319 320 320 320 320 320 319 319 320 319 319 318 318 318 319 320 319 319 319 320 320 320 319 318 317 317 317 319 323 326 325 323 322 321 322 322 322 323 322 320 318 316 316 314 311 309 309 309 309 309 308 308 308 308 308 308 308 308 308 308 308 308 308 309 310 311 312 313 314 314 313 313 313 314 314 314 315 316 317
321 320 324 327 325 326 321 317 319 319 319 319 319 322 323 322 320 319 320 320 320 320 320 320 320 320 320 320 320 319 319 319 320 320 320 319 319 320 320 320 321 320 318 318 318 317 320 324 325 323 322 321 321 322 322 323 323 320 317 316 317 316 314 311 310 309 309 309 308 308 308 308 308 308 308 308 308 307 307 308 308 308 309 310 312 313 313 314 313 313 313 314 314 315 316 317 318
323 321 322 326 328 329 322 317 319 320 319 319 319 323 323 321 320 319 320 321 320 320 320 321 321 321 321 321 321 321 320 320 320 320 321 320 320 320 319 320 321 321 321 319 317 316 318 322 324 323 321 321 321 322 322 323 323 320 317 316 317 316 315 312 310 309 309 309 308 308 308 308 308 308 308 308 308 308 307 307 307 308 308 310 311 312 313 313 313 313 313 314 314 315 317 317 318
325 325 326 325 327 329 324 318 317 320 321 318 320 324 324 322 321 320 321 322 321 320 321 321 322 322 322 322 321 321 321 321 320 320 320 320 320 319 319 319 320 321 321 320 318 317 317 319 322 323 321 321 322 322 323 324 324 322 318 316 316 314 313 312 310 309 309 308 309 309 310 310 309 309 308 308 308 308 307 307 307 307 308 309 310 311 312 312 313 313 313 314 314 316 318 317 317
324 326 328 326 325 327 326 320 316 319 321 319 320 324 327 325 320 319 321 321 321 320 320 322 322 323 322 321 321 321 321 321 321 321 321 321 321 320 319 318 319 320 321 321 320 318 316 317 320 322 322 322 322 323 324 324 325 324 320 317 315 314 312 311 310 309 309 309 310 311 312 312 312 311 309 308 308 308 307 307 307 307 307 308 309 310 311 312 313 313 313 314 314 316 318 318 318
326 324 326 326 324 324 326 326 320 317 320 321 322 322 325 325 320 319 321 320 321 320 321 322 322 322 321 321 321 321 321 322 323 324 324 323 323 322 320 318 318 319 321 322 322 320 317 317 318 320 322 323 323 323 324 324 325 325 323 320 317 316 314 313 312 311 311 311 312 314 314 314 314 312 311 310 309 308 308 307 307 307 307 307 308 309 310 311 312 313 313 313 314 316 318 318 318
327 324 325 326 324 323 326 329 324 319 321 321 322 322 322 322 320 319 320 320 320 320 321 321 321 321 321 321 321 322 322 322 324 325 325 324 324 322 320 318 318 318 320 321 322 322 319 318 317 319 321 323 324 325 326 326 326 326 326 324 321 319 317 316 315 315 314 314 315 316 316 316 316 315 313 313 312 311 310 308 308 308 307 307 307 308 309 310 311 312 312 313 314 316 318 319 319
328 324 325 327 326 326 326 329 324 319 322 322 320 322 321 321 320 319 319 320 319 320 320 320 320 321 321 322 322 322 322 323 325 325 325 323 322 321 319 318 318 318 319 320 322 323 321 319 318 318 319 322 325 327 327 328 327 327 327 327 324 321 319 318 318 319 319 319 319 319 318 318 318 317 316 315 315 314 312 311 309 308 308 308 308 308 309 309 310 310 311 312 315 317 319 319 319
326 324 324 326 327 327 326 327 323 317 321 325 321 320 320 320 320 318 318 318 318 319 319 319 320 320 320 321 322 323 324 325 325 325 324 322 320 320 319 319 318 318 318 319 321 322 322 320 318 317 317 319 322 326 328 329 328 328 328 327 326 323 321 320 320 321 322 322 323 322 322 322 320 319 318 317 317 317 316 314 312 310 309 309 309 310 310 310 310 310 311 313 316 318 319 320 320
325 325 325 325 326 327 326 327 324 317 321 326 323 322 321 320 320 318 317 318 318 318 319 319 319 320 320 321 322 323 324 324 325 325 325 323 320 319 319 318 318 318 318 319 320 321 322 321 319 317 317 318 319 322 325 328 329 329 328 328 327 325 323 322 322 322 322 323 324 324 324 323 323 321 320 320 320 319 319 317 316 314 312 311 311 311 311 311 312 312 313 314 316 318 319 320 321
326 326 326 326 325 326 327 328 324 318 321 327 324 322 322 320 320 318 316 317 318 320 320 320 320 320 320 320 321 322 323 324 325 325 325 324 321 318 318 318 318 318 318 318 319 319 321 321 319 318 318 317 317 317 320 323 326 328 329 329 329 328 327 326 325 324 323 322 322 323 324 324 324 323 323 322 322 322 322 321 319 317 315 314 313 312 312 312 313 314 314 315 316 318 319 320 320
326 326 326 327 326 326 329 330 324 318 320 323 322 321 320 319 319 318 317 316 317 320 320 320 320 320 321 321 321 322 322 323 324 325 324 324 324 320 318 318 317 318 318 318 318 319 320 319 319 318 318 317 317 316 316 318 321 325 327 328 329 330 330 329 329 328 327 325 323 322 323 323 324 324 324 323 323 323 323 322 322 320 318 317 315 315 314 314 314 315 315 316 317 318 319 319 320
326 326 326 327 326 327 329 328 322 320 320 318 318 323 323 323 324 322 320 318 317 318 318 318 318 320 321 321 321 322 322 322 324 325 325 324 325 323 321 319 317 318 318 318 318 318 318 318 318 318 318 317 317 316 316 317 319 322 325 328 329 329 329 330 330 330 330 329 327 324 322 322 323 323 323 323 323 323 323 323 323 322 321 320 319 318 317 316 316 316 317 317 318 318 319 319 320
326 326 325 325 327 327 327 324 321 327 330 320 319 327 330 330 329 325 323 321 319 317 315 316 318 320 320 320 322 323 323 324 324 325 326 325 325 325 324 322 320 319 319 319 319 319 319 318 318 318 318 318 317 317 317 318 319 320 322 324 326 327 328 328 329 329 330 330 330 328 326 324 322 322 323 323 323 323 323 323 323 323 323 322 321 321 320 319 318 318 318 318 319 319 319 320 321
327 326 325 325 327 327 326 324 324 330 332 322 319 327 331 330 328 328 328 327 324 321 316 315 317 319 319 320 322 322 323 324 325 325 325 325 325 325 325 325 324 323 322 321 320 319 319 319 319 319 318 318 317 317 317 318 318 319 319 320 320 322 323 324 325 327 328 329 329 330 329 327 325 324 323 322 322 323 323 323 323 323 323 323 322 322 321 321 321 320 320 320 320 320 320 320 320
327 327 327 326 326 326 326 326 327 327 326 322 320 323 327 326 326 328 330 329 326 324 322 318 317 319 320 321 322 322 323 323 323 324 324 325 325 325 325 325 325 325 324 324 323 321 320 320 320 320 319 318 318 318 318 318 317 317 318 318 318 318 318 319 321 323 324 326 327 328 329 329 328 327 326 324 323 322 322 322 322 323 323 323 323 323 323 323 322 322 322 322 321 321 321 321 320
326 326 328 327 325 326 326 326 326 324 324 325 322 321 326 328 327 325 324 325 324 323 324 322 319 320 321 321 322 322 323 323 322 323 323 323 323 323 323 323 323 323 323 323 324 324 323 322 322 321 321 320 319 318 318 317 317 317 318 318 318 318 317 318 319 320 320 322 323 324 326 327 328 328 328 327 326 324 322 322 321 322 322 322 322 323 323 323 323 323 323 323 323 323 322 322 322
322 322 325 325 325 325 325 326 325 322 324 328 325 323 326 330 329 326 322 324 325 322 322 321 318 320 321 321 322 322 322 322 322 323 323 323 323 323 322 322 322 322 321 321 322 322 323 323 323 323 323 322 320 319 318 318 317 318 318 318 318 317 318 320 320 320 320 320 320 320 321 322 323 325 326 327 328 327 326 324 322 322 322 322 322 322 322 322 323 323 323 324 324 324 324 323 323
320 323 325 324 324 324 323 324 324 324 326 328 326 324 326 329 329 326 324 325 327 324 322 321 319 318 320 321 322 322 322 322 322 322 323 323 323 323 323 322 321 321 320 321 321 321 321 322 322 323 323 324 321 319 319 319 318 318 317 317 317 317 319 320 321 320 320 319 318 317 317 317 318 319 320 323 325 327 327 327 325 324 323 322 322 322 322 322 322 323 323 323 324 325 325 325 325
322 327 327 325 324 323 323 323 324 327 328 328 326 324 324 328 328 327 327 327 326 325 325 326 322 318 320 321 322 322 322 322 322 322 322 322 323 323 322 321 321 321 320 320 320 321 321 321 321 321 322 323 321 319 319 319 319 319 317 317 317 317 319 320 319 319 319 319 318 317 318 317 316 315 316 317 319 321 323 325 326 326 325 324 324 323 323 322 322 322 322 323 324 325 325 326 325
325 327 326 326 326 326 327 326 325 327 328 327 327 325 324 325 325 327 329 328 325 321 319 322 321 319 320 321 321 321 322 322 321 321 320 321 321 321 321 320 321 321 321 320 320 320 321 321 321 321 321 322 321 320 319 319 320 319 318 317 317 318 319 320 319 318 318 318 318 318 318 317 316 315 315 314 314 316 317 319 321 323 324 325 325 324 324 323 323 323 323 324 325 325 326 326 326
324 325 325 326 327 327 328 328 327 327 326 325 325 324 325 326 324 325 324 323 323 319 316 318 319 319 319 320 320 320 321 321 321 321 320 320 321 320 320 321 321 321 321 321 320 320 320 320 320 321 321 321 321 320 319 319 319 319 319 318 318 319 319 319 319 318 318 317 317 317 317 316 316 315 315 314 315 316 316 317 318 319 320 323 324 324 324 324 324 324 324 325 325 325 326 326 326
323 324 324 324 326 327 328 328 329 328 326 324 322 323 327 327 325 323 317 315 318 318 318 319 319 319 320 320 320 320 320 321 321 321 321 321 321 321 321 321 321 321 320 321 321 320 320 320 320 321 321 321 320 320 320 319 319 318 319 319 318 319 320 320 319 318 318 318 317 317 316 316 315 315 315 316 316 316 317 317 318 318 319 319 321 322 323 324 325 325 325 326 326 326 326 326 326
323 324 324 324 325 327 325 325 325 326 326 325 323 324 327 325 321 318 315 315 317 316 317 318 318 320 320 319 319 320 321 321 320 320 319 319 319 319 319 320 321 320 319 320 320 320 321 321 321 321 321 321 320 320 320 320 319 318 318 318 318 319 320 320 320 319 318 318 318 317 316 315 316 316 316 316 316 317 317 318 319 319 320 320 320 320 321 323 324 325 325 325 325 325 326 326 325
323 324 325 323 325 327 326 323 320 322 326 326 325 326 325 323 321 319 318 320 320 320 318 315 317 319 318 316 318 319 320 319 319 318 318 318 318 317 317 318 320 320 319 320 320 320 321 321 321 321 321 320 320 319 320 319 319 318 318 318 319 319 319 319 319 319 318 319 319 318 317 317 317 316 316 316 317 317 318 319 320 320 321 321 321 321 321 322 323 324 325 325 325 325 325 325 325
323 324 323 322 324 325 325 324 322 321 323 326 325 324 323 323 323 323 321 321 320 323 322 316 315 317 315 315 317 318 318 318 318 318 318 318 318 318 318 319 320 320 319 320 320 320 320 319 320 321 321 321 320 319 319 318 318 318 318 318 318 318 319 319 319 319 319 320 320 319 319 318 317 317 317 318 318 318 319 319 320 321 322 322 322 322 322 322 323 324 324 324 324 324 324 325 324
319 321 321 322 325 325 323 324 325 325 325 326 326 323 322 322 322 321 322 322 321 320 321 319 317 316 315 315 317 317 317 318 319 318 319 319 319 319 319 320 320 320 319 319 320 319 319 319 319 319 320 320 319 319 318 318 317 317 317 318 318 318 318 319 319 319 320 321 320 320 320 319 318 319 319 319 320 320 320 321 322 322 323 323 324 324 324 324 324 324 324 324 323 324 324 324 324
317 319 321 322 324 324 324 324 326 328 326 326 325 324 324 322 319 319 320 323 325 322 321 321 318 316 316 316 317 316 316 317 318 319 319 319 319 319 319 320 320 320 319 319 319 319 318 318 318 319 320 320 319 319 318 318 317 317 317 317 318 318 318 319 319 320 321 321 320 320 320 320 320 321 321 321 321 322 322 323 323 324 324 324 324 324 325 325 325 325 325 324 324 324 323 323 324
320 321 322 323 322 323 324 324 325 326 325 325 325 324 325 323 319 319 318 319 325 326 324 321 317 315 317 317 316 316 317 317 317 318 319 318 319 319 319 320 320 319 318 318 318 318 318 317 318 318 318 319 319 319 319 318 318 317 317 317 317 318 318 319 319 320 321 321 320 321 320 321 321 321 322 322 322 323 323 324 324 324 324 324 325 325 325 325 325 326 325 325 325 325 324 324 324
321 321 322 323 322 323 325 325 324 322 323 325 325 324 324 323 322 321 319 318 319 320 320 319 316 315 317 317 316 316 317 318 318 318 318 318 318 319 319 319 319 318 318 318 318 318 317 317 317 317 317 318 318 319 319 318 318 318 317 317 317 318 318 319 320 321 321 321 321 321 321 322 322 322 322 323 323 323 323 324 324 324 324 324 324 324 324 324 325 325 326 325 324 324 323 323 324
Wind_Speed
4 5 7 8 11 8 5 4 1 3 4 2 2 1 2 2 1 1 2 1 1 2 0 6 9 12 7 3 6 4 5 5 4 3 2 6 15 21 18 16 17 15 13 12 12 10 9 8 6 6 5 4 2 0 2 2 0 3 6 8 10 11 10 11 10 9 8 5 3 3 2 2 4 5 7 7 6 6 7 8 10 11 11 12 12 12 12 11 11 11 10 10 9 8 9 10 10
5 5 7 8 11 7 2 4 2 2 5 2 2 2 2 2 0 4 5 3 3 5 9 12 12 11 6 6 8 6 4 2 3 4 7 15 22 21 17 16 17 15 13 12 11 10 10 8 7 6 5 3 1 1 1 1 2 3 5 7 9 12 11 10 9 7 6 3 3 4 4 3 5 6 6 6 5 5 6 9 10 11 12 13 13 13 13 13 12 12 11 9 9 9 10 10 10
5 5 7 8 9 6 2 4 2 1 4 2 4 3 1 0 4 6 5 4 9 13 13 12 9 6 4 4 4 3 2 0 3 6 13 23 23 20 18 18 17 15 14 12 11 10 10 9 8 7 5 3 1 1 1 3 3 3 5 6 8 11 10 7 6 4 4 4 4 5 6 6 5 6 6 6 5 6 7 9 11 11 12 13 13 13 13 13 12 11 10 9 9 9 10 10 9
7 6 7 9 7 4 3 4 2 4 3 3 2 3 2 3 6 5 3 8 14 11 6 4 4 4 3 3 3 2 1 1 5 7 15 24 21 20 20 20 18 16 15 13 11 10 10 10 9 7 5 3 1 2 3 4 4 4 6 7 8 10 9 6 6 5 6 6 6 6 6 7 6 6 6 6 7 8 9 9 11 11 12 13 12 12 12 11 11 10 9 8 9 9 9 9 9
8 7 8 8 4 2 3 3 2 4 2 4 1 4 4 5 5 3 4 9 11 4 1 1 2 3 5 4 2 1 2 4 6 5 14 23 20 19 20 20 19 17 15 13 11 11 10 10 9 7 5 3 1 2 3 3 3 5 7 8 9 9 9 7 6 6 6 6 6 6 7 7 7 7 7 7 7 9 10 10 11 11 12 12 11 11 10 10 9 9 8 8 8 8 8 8 7
7 7 7 6 4 2 2 2 1 0 4 4 2 4 5 6 6 4 5 6 7 6 3 2 3 5 5 4 3 4 4 4 6 5 13 22 19 19 19 19 19 17 15 12 11 10 9 8 7 6 4 3 1 2 3 3 3 4 8 9 9 10 9 8 7 7 6 7 7 7 8 7 8 8 8 7 6 8 10 10 10 11 11 11 10 9 9 8 8 7 6 6 7 7 7 6 6
6 6 7 4 4 3 3 3 2 2 3 4 3 4 5 8 8 6 4 3 2 4 5 4 6 6 3 3 3 4 4 4 6 6 13 19 18 18 18 18 18 16 14 12 11 9 8 7 6 5 3 3 2 1 2 3 3 4 7 8 9 10 10 9 8 7 7 7 7 7 8 7 8 9 8 7 5 6 9 10 10 10 10 10 9 8 7 7 6 6 5 5 6 6 6 5 5
5 6 5 3 2 4 4 2 3 2 1 3 3 4 7 10 10 7 4 3 2 3 5 7 7 3 2 3 2 4 4 5 7 8 14 18 18 18 17 17 17 16 14 12 11 9 8 6 5 5 3 3 2 1 2 3 4 4 4 6 8 9 9 10 8 8 7 8 7 7 7 8 8 8 7 7 6 6 7 9 10 10 9 9 8 7 6 6 5 5 4 4 4 5 5 4 4
4 4 3 2 1 2 2 1 2 3 2 4 4 3 7 10 10 6 3 2 3 5 7 10 3 1 4 4 3 6 5 6 7 9 14 16 17 17 16 16 15 14 13 12 11 10 8 7 6 5 4 3 3 2 0 2 4 4 4 4 6 7 8 9 8 7 8 8 7 6 7 7 7 7 7 7 7 5 5 8 9 9 9 8 7 6 5 5 5 4 3 3 3 4 4 3 3
3 3 1 2 1 2 3 2 1 2 4 4 4 3 6 9 8 3 2 3 4 6 8 8 3 1 7 5 5 7 6 7 8 10 14 15 15 15 15 14 13 11 11 11 10 9 8 7 7 6 5 4 3 3 2 1 3 4 4 5 6 7 7 6 7 7 7 7 7 7 6 6 7 7 7 6 5 4 4 6 8 8 8 8 7 6 5 5 4 3 2 2 2 2 2 2 2
1 3 2 3 2 1 0 2 3 3 4 5 3 4 6 9 7 2 3 3 5 6 7 7 4 6 8 4 6 7 7 8 8 10 12 15 14 13 14 13 12 11 9 9 9 9 8 8 8 7 6 4 4 3 3 2 3 3 4 5 6 6 6 6 7 7 7 7 7 7 6 6 7 7 7 5 4 4 5 6 7 8 8 7 7 6 5 4 3 2 1 1 2 2 3 4 4
0 2 3 2 1 1 2 2 3 5 5 4 1 4 6 9 5 3 6 5 6 6 7 7 4 7 5 2 7 8 8 9 9 9 10 13 13 12 12 12 12 12 10 9 9 9 9 9 9 8 7 6 5 4 3 3 3 4 4 6 6 6 7 7 8 7 7 7 7 7 7 7 7 7 7 6 4 5 7 8 8 8 8 7 6 6 5 4 3 2 1 1 2 3 4 4 5
2 1 3 2 2 1 2 1 3 3 4 3 3 4 6 9 7 7 8 6 6 5 6 8 6 7 4 2 6 9 10 10 11 10 9 11 12 12 12 12 12 12 12 11 10 10 10 9 10 10 8 7 7 5 4 3 4 4 4 7 7 7 6 7 7 7 6 6 5 5 6 6 7 6 6 6 5 5 7 8 9 8 8 7 6 6 5 4 3 1 0 1 2 3 4 4 5
3 4 3 2 1 1 3 1 2 1 3 5 3 4 8 8 7 9 8 5 7 6 5 8 8 7 3 3 5 10 11 10 12 11 10 10 10 12 12 12 12 12 13 13 12 12 10 10 11 11 9 9 8 7 5 4 5 5 4 6 8 8 7 7 7 6 6 6 5 4 5 5 5 5 5 5 5 5 7 8 8 8 7 6 6 6 5 4 3 1 0 2 2 3 4 5 6
4 4 3 2 2 1 3 1 1 4 4 4 4 5 7 8 7 9 10 6 7 8 5 8 10 5 3 4 2 6 11 10 11 11 12 12 11 12 12 13 12 13 14 14 15 14 12 11 12 12 10 10 10 8 6 5 5 6 6 6 7 8 8 7 7 7 6 6 5 5 5 5 4 4 5 5 5 6 7 8 7 7 6 6 6 5 5 4 2 1 1 2 3 4 5 6 7
5 3 3 2 2 1 3 2 2 3 4 5 6 7 5 7 9 8 10 7 5 8 7 8 12 7 3 5 1 2 10 12 11 12 13 13 14 14 14 14 14 15 15 16 16 16 15 13 13 13 12 12 11 10 7 6 6 6 7 7 7 8 7 6 7 7 7 7 7 6 5 5 5 5 6 6 6 7 8 9 8 8 7 6 6 6 5 4 3 2 2 3 4 5 6 7 8
5 3 3 1 3 3 3 4 3 3 4 4 5 9 6 3 8 8 9 8 6 9 11 9 12 13 6 4 3 3 8 12 13 13 14 15 16 16 17 18 18 18 18 18 18 18 18 16 15 15 15 13 13 12 9 8 8 8 8 8 8 8 8 7 8 8 8 8 7 7 6 6 6 6 7 7 8 9 9 9 9 8 8 7 6 6 5 4 3 3 3 4 5 6 7 8 9
5 3 3 2 4 4 5 6 7 4 1 4 6 8 6 3 7 9 6 7 7 10 14 12 12 15 11 6 6 6 7 11 14 14 15 16 17 18 19 20 20 21 20 19 19 20 19 18 17 16 16 16 15 13 12 10 9 10 9 9 10 9 9 8 8 8 8 9 9 8 8 8 7 7 8 8 9 9 9 9 9 9 8 7 7 6 5 4 3 3 4 5 6 7 8 9 10
5 3 2 4 4 3 4 8 9 5 1 4 7 7 6 4 9 11 5 5 6 7 12 13 13 15 13 10 9 8 9 12 14 15 15 16 17 18 20 21 22 22 21 20 20 20 20 19 18 17 18 17 17 16 13 12 11 11 10 11 10 10 9 9 9 8 9 10 11 10 10 9 9 9 9 9 9 9 10 10 10 9 9 8 7 6 6 4 4 4 5 6 7 8 9 9 9
4 4 3 6 5 3 4 7 8 7 4 6 7 6 6 6 9 10 5 3 5 7 11 13 15 17 15 12 11 10 11 12 14 15 16 16 16 17 18 20 21 21 21 20 19 19 20 20 19 18 19 19 18 17 16 14 13 12 12 12 12 11 10 10 10 9 9 11 12 11 10 10 9 9 9 9 10 10 10 10 10 10 9 8 8 7 6 5 5 6 6 7 7 8 9 9 9
4 5 4 5 5 3 5 7 6 7 7 8 9 6 5 7 9 10 7 3 4 12 17 18 18 16 13 14 13 12 13 14 15 16 16 17 17 17 17 17 18 19 19 20 21 20 19 20 20 19 20 20 20 19 18 16 14 13 13 13 13 12 12 11 10 10 10 10 12 12 11 10 9 9 9 10 10 10 10 10 10 10 9 9 8 8 7 7 7 7 7 7 8 9 10 10 10
3 4 3 3 5 2 4 6 6 6 7 8 10 7 6 8 8 10 10 6 7 12 14 16 19 17 12 13 14 14 16 16 16 16 16 17 17 17 17 17 17 18 20 22 22 21 20 20 20 20 21 21 21 20 19 18 16 15 14 14 14 14 13 12 11 11 11 10 11 11 11 10 10 10 10 10 10 11 11 11 11 10 10 9 9 9 8 8 7 7 8 8 8 9 10 11 11
3 3 3 4 6 3 2 6 7 6 7 7 8 7 8 8 6 10 13 13 14 11 8 9 13 17 15 13 14 15 16 17 16 15 15 15 15 16 16 16 17 17 19 20 21 21 21 21 21 21 21 22 22 21 21 20 18 17 16 15 15 15 14 14 12 12 12 11 11 11 12 11 11 11 10 11 11 11 11 11 12 11 11 11 10 10 9 9 8 8 8 9 9 9 10 11 11
3 3 4 5 7 6 4 6 7 6 7 6 5 6 7 8 6 7 13 18 19 14 12 11 10 12 16 16 16 16 16 17 16 14 14 14 14 14 14 15 16 16 18 19 20 21 22 21 21 22 22 23 22 22 22 21 20 19 18 18 17 16 16 15 13 13 13 12 12 12 12 12 12 12 11 11 11 12 12 12 13 12 12 12 12 11 10 10 9 9 9 10 10 10 11 12 12
5 4 3 3 5 6 5 6 7 6 6 6 5 5 6 8 5 5 13 18 16 14 15 15 13 11 14 18 18 16 17 17 17 17 17 17 17 17 17 17 17 19 19 19 19 21 22 22 22 23 23 23 22 22 22 22 21 20 20 19 18 18 17 15 14 14 13 13 12 13 13 13 13 13 12 12 12 12 13 14 14 13 13 13 13 12 11 11 10 10 10 10 10 11 12 13 13
7 8 4 3 3 4 6 8 8 6 6 6 5 5 6 6 5 7 14 18 16 14 15 16 16 14 14 16 18 17 18 18 18 18 18 18 19 20 20 20 20 20 19 18 19 20 21 22 23 23 23 23 23 22 22 22 21 21 20 20 19 19 18 16 15 15 14 13 12 12 13 14 14 14 13 13 14 14 14 15 15 14 14 14 13 12 12 12 11 11 10 10 11 11 13 13 13
5 7 7 5 4 3 5 7 8 6 5 7 6 5 7 5 4 5 6 9 13 15 17 18 17 16 16 17 18 19 19 19 19 19 19 21 22 23 22 22 22 21 20 19 19 20 21 23 23 24 24 23 23 22 22 22 21 21 20 19 20 20 19 17 17 15 14 13 13 12 13 14 15 15 15 15 15 15 15 15 15 15 15 14 13 12 13 13 12 12 11 11 12 12 13 13 13
2 3 4 6 5 5 5 5 7 6 4 6 5 4 7 5 4 6 4 5 9 12 14 17 18 18 18 18 19 20 21 20 20 21 22 23 23 23 23 22 22 21 20 19 18 20 21 23 24 24 24 24 24 23 22 21 21 20 20 19 20 20 20 19 18 17 16 14 14 14 14 14 16 16 16 15 15 15 16 16 16 16 15 14 14 13 14 14 14 13 12 12 13 13 14 14 13
2 3 2 5 3 4 7 6 5 6 4 4 3 4 7 8 7 8 11 13 14 16 17 16 17 18 18 18 19 21 21 21 22 24 23 24 24 24 24 23 22 22 21 19 19 20 21 23 24 24 25 25 25 24 22 21 20 20 19 19 19 20 21 21 20 18 17 16 15 15 15 15 16 16 16 16 16 16 16 16 17 16 15 15 15 14 15 16 15 14 13 13 14 14 14 14 14
2 2 2 2 3 4 8 7 4 5 4 4 5 3 7 9 11 11 14 17 18 21 22 21 20 20 21 21 22 22 22 23 24 24 23 24 25 25 25 23 24 24 22 21 21 20 21 23 24 25 26 26 25 25 24 22 20 19 19 19 19 20 22 22 21 19 17 17 17 17 16 15 15 16 17 17 17 17 17 17 17 17 16 16 16 16 16 17 16 15 15 14 15 15 15 14 14
2 1 1 2 2 3 4 6 8 6 4 7 7 3 9 9 8 10 12 14 19 23 24 24 25 26 27 27 27 28 27 26 26 25 25 26 26 26 25 24 24 25 23 23 22 20 20 22 24 26 27 27 26 25 25 23 21 19 19 19 20 21 22 22 20 19 18 18 17 17 16 15 14 15 16 17 18 18 18 18 17 17 16 17 17 17 18 18 17 16 16 16 16 15 15 14 13
1 2 1 2 4 3 4 4 11 9 4 8 8 3 9 10 9 12 14 15 18 23 25 24 26 28 30 31 30 30 29 28 27 27 27 27 27 27 27 25 24 25 25 24 22 21 21 22 25 26 27 27 27 26 25 23 22 20 20 20 20 20 21 21 20 19 19 19 18 17 16 15 14 14 16 17 18 18 18 18 17 17 17 18 18 18 19 19 18 17 17 17 17 16 15 14 13
1 3 3 2 4 2 3 2 9 11 4 6 8 5 7 6 4 6 11 16 17 19 22 23 25 28 28 28 28 28 28 27 28 28 27 28 28 28 28 27 25 25 25 24 23 23 21 22 24 27 27 27 27 26 25 24 24 22 21 21 21 21 21 21 20 20 20 20 19 18 17 16 15 15 16 17 18 18 19 19 18 18 18 18 19 19 20 19 19 19 18 17 17 17 15 14 14
2 1 2 2 3 3 2 3 7 10 5 5 8 7 12 9 4 4 4 8 11 15 20 22 24 26 25 25 25 26 27 27 28 28 28 30 29 29 29 28 27 26 26 25 25 24 23 22 24 26 28 28 28 27 26 25 25 24 23 22 23 23 23 22 20 21 21 21 20 19 19 18 17 17 17 17 18 18 19 19 18 18 18 19 20 20 21 20 20 20 19 18 18 17 16 15 14
4 2 2 1 1 4 5 3 4 7 4 6 6 5 15 14 9 15 15 11 12 16 21 23 24 25 25 25 26 27 28 31 33 32 31 31 30 29 29 29 29 27 26 26 26 26 25 24 24 26 28 29 29 28 27 26 26 26 26 25 26 26 25 23 23 23 22 22 22 21 20 20 19 18 18 18 18 18 18 19 18 18 19 19 20 21 22 22 21 21 20 19 18 18 17 15 15
6 6 4 4 3 4 5 5 3 6 5 6 8 7 13 16 11 15 21 19 18 22 25 28 28 27 28 29 32 34 37 39 38 34 32 31 30 27 27 29 30 29 27 27 28 28 27 26 26 27 28 29 29 29 29 29 29 29 29 28 29 29 27 26 25 24 24 24 23 22 22 22 21 20 20 19 19 18 18 18 18 18 19 20 21 22 22 22 21 21 20 19 19 19 17 16 16
7 6 5 6 6 5 4 5 3 2 4 5 8 8 12 18 12 10 18 15 14 22 27 31 31 30 31 34 39 42 44 43 38 34 32 31 29 27 26 28 30 30 29 28 30 30 29 28 28 29 28 29 31 32 32 31 32 32 31 32 31 30 28 27 27 27 27 26 24 24 24 24 23 23 22 21 20 19 19 18 18 18 19 20 21 22 22 22 21 21 20 20 20 20 19 17 16
5 5 5 5 5 5 5 5 2 2 2 4 5 7 11 16 13 12 15 9 11 23 26 29 32 31 32 36 41 44 43 40 36 33 32 31 30 27 27 28 29 30 29 28 30 30 30 29 30 30 29 30 31 32 33 33 33 33 32 32 31 30 29 29 29 28 28 27 26 26 26 26 26 25 23 22 21 20 20 20 19 18 19 20 21 21 21 22 21 21 21 22 22 22 21 18 17
2 3 3 4 3 2 4 4 2 1 3 3 4 5 9 14 14 12 13 11 17 29 31 31 32 31 33 36 39 41 40 39 35 33 32 31 30 29 28 30 30 30 28 28 29 29 29 30 31 31 31 31 31 32 33 34 34 33 32 32 30 30 30 30 29 29 29 29 29 29 29 28 28 26 25 24 23 23 22 22 20 19 19 20 21 21 22 22 22 21 22 22 22 23 22 21 20
2 3 3 3 2 2 4 4 3 2 2 2 2 5 7 9 12 12 15 21 25 32 35 34 33 33 38 40 39 40 40 40 37 35 33 31 30 30 31 31 30 29 29 29 29 29 30 31 31 32 33 33 32 32 33 33 33 33 33 32 32 32 32 31 31 31 32 32 33 33 32 31 30 29 27 27 26 26 25 24 23 21 21 21 21 22 22 22 22 22 22 22 23 24 24 23 22
4 4 5 4 3 6 6 2 2 2 2 1 2 7 8 7 11 12 13 18 22 28 30 29 33 36 40 41 41 42 41 41 40 38 36 34 32 32 33 34 33 33 32 31 30 29 30 31 31 32 33 34 34 33 33 33 33 34 34 35 36 36 36 36 36 36 36 35 35 35 35 34 33 32 30 29 29 28 27 27 25 24 23 22 23 23 23 23 22 23 23 23 24 25 25 24 23
6 6 8 6 5 7 6 1 2 3 4 2 2 5 7 3 8 11 7 6 11 17 18 22 31 34 35 38 41 43 41 41 41 40 39 37 35 34 34 36 37 38 38 36 34 31 31 31 31 32 33 34 34 34 34 34 34 35 36 37 38 39 40 40 40 39 37 37 36 36 36 36 35 35 33 32 32 31 30 29 28 27 26 25 25 25 25 24 24 24 24 24 25 25 26 26 26
6 5 7 6 6 6 5 3 1 1 4 3 2 3 7 4 5 8 6 5 8 11 10 17 27 31 31 36 39 39 38 39 40 40 40 39 38 37 37 37 39 40 41 39 38 36 35 33 32 32 33 34 34 35 35 35 36 36 37 38 38 39 41 41 39 37 36 36 35 35 36 36 36 36 36 35 34 34 33 32 31 30 29 28 27 27 27 26 25 25 24 25 26 26 27 28 28
4 4 8 8 6 6 4 3 2 2 2 3 1 2 5 8 7 7 8 10 11 10 11 14 24 31 32 34 37 37 35 34 34 35 35 35 35 36 36 37 37 39 39 40 40 39 38 37 35 34 34 34 35 35 36 37 37 38 38 38 38 39 40 40 38 37 36 35 35 35 35 35 36 36 37 37 36 36 36 35 34 33 32 31 30 30 29 28 27 26 26 26 27 27 28 29 29
3 4 7 7 6 5 4 4 2 1 3 3 3 1 3 9 7 4 6 12 12 11 13 14 21 31 34 34 38 39 38 37 35 34 32 30 29 29 29 30 32 33 35 37 40 40 40 39 38 37 36 37 37 36 37 38 38 38 38 39 39 39 39 38 37 37 37 37 37 36 36 35 35 35 36 36 37 38 38 37 36 36 35 34 33 33 31 30 30 29 29 28 28 29 29 29 30
3 4 5 4 4 4 4 4 3 2 0 7 7 5 4 10 6 3 3 7 10 9 10 11 19 31 34 34 37 39 39 38 37 36 35 33 32 30 29 29 31 32 31 32 34 37 40 41 40 39 39 39 39 39 38 37 38 39 40 40 40 39 39 38 38 38 38 38 38 37 37 36 35 35 35 35 36 37 38 38 38 38 37 37 36 35 34 33 33 32 31 30 30 30 29 30 30
5 5 5 5 4 4 3 2 3 2 4 11 11 10 7 9 4 4 4 4 7 8 7 9 18 29 33 34 36 37 36 36 36 36 36 35 33 32 30 29 30 31 31 31 31 32 35 39 41 41 40 40 40 41 41 39 38 39 39 40 40 39 39 39 39 39 39 38 38 38 37 36 36 35 35 35 35 35 36 37 39 39 39 39 38 37 37 36 35 34 33 32 32 31 31 31 30
6 4 4 2 1 1 2 1 2 3 7 10 10 10 10 9 5 3 4 5 5 6 7 9 13 22 29 31 31 30 29 30 30 30 30 31 31 29 26 26 26 27 30 32 32 31 32 34 37 40 41 41 42 43 43 42 40 39 39 39 39 39 39 40 39 39 38 38 37 37 37 36 35 34 34 35 34 34 34 35 36 38 39 40 39 39 38 37 37 36 35 35 34 34 33 32 31
5 4 5 3 2 2 2 3 3 4 7 7 4 7 8 10 12 10 9 8 7 9 12 13 16 23 30 32 30 28 27 27 26 24 23 23 24 22 20 20 23 25 27 29 30 31 31 32 33 36 39 41 43 44 45 44 42 40 39 38 38 38 39 39 39 39 38 38 37 37 36 35 34 34 33 33 32 31 32 32 33 34 36 37 38 39 38 38 38 37 37 36 36 35 34 33 33
9 7 7 6 4 3 4 4 3 3 8 8 3 6 2 7 11 14 14 13 17 21 22 23 26 29 33 35 34 33 32 31 30 29 27 25 24 23 22 22 23 23 23 25 26 27 29 31 32 34 35 37 41 43 44 44 43 40 39 38 37 37 39 39 39 39 38 38 37 37 36 35 34 33 32 31 30 30 30 30 30 30 31 33 34 35 36 37 37 37 37 36 36 36 35 35 34
10 6 6 6 4 4 4 3 3 5 6 6 2 5 4 5 4 6 9 12 17 22 21 24 30 34 36 40 40 39 40 40 39 38 38 38 37 37 36 34 30 25 20 20 22 23 26 28 30 32 33 35 39 42 43 44 42 40 38 38 38 38 38 38 37 37 37 38 38 37 37 36 34 33 32 31 31 30 30 29 29 28 28 28 29 30 31 32 33 34 35 35 35 35 35 35 35
6 4 5 7 6 4 1 1 3 4 3 4 2 3 5 5 6 9 10 9 12 17 19 22 30 37 38 40 42 43 44 42 38 36 34 34 34 35 36 34 31 25 19 17 18 20 23 26 28 30 31 33 36 39 42 42 41 39 39 38 38 38 38 38 37 36 36 37 37 37 37 36 35 34 33 33 32 31 30 30 29 28 27 27 27 27 27 28 29 30 31 32 33 33 34 34 34
3 5 7 6 4 6 1 3 1 1 3 4 3 4 5 5 11 13 12 12 11 12 16 19 27 36 35 34 39 41 38 33 29 26 25 25 26 27 28 28 28 26 21 19 18 18 20 23 26 28 30 31 34 37 39 40 40 40 40 39 38 38 37 36 36 35 34 35 36 36 36 36 36 35 35 34 34 33 32 31 30 29 28 26 26 26 26 26 27 28 29 30 30 30 31 32 32
4 6 7 3 3 3 2 2 1 0 4 3 3 9 7 4 8 7 5 12 13 11 14 18 23 29 29 31 37 38 32 28 26 24 22 22 23 23 24 24 26 26 24 22 22 20 20 21 24 26 27 29 31 34 36 37 38 38 39 38 37 36 35 34 34 34 34 36 36 36 36 35 35 35 36 36 36 35 34 33 31 29 28 27 26 25 25 25 26 27 28 28 28 27 29 30 30
2 3 5 6 1 2 3 4 2 2 4 3 4 9 8 7 10 8 6 9 11 11 14 15 17 22 26 33 39 38 32 28 26 25 22 20 18 17 19 22 25 26 25 24 22 22 21 21 22 24 25 26 28 30 32 34 36 37 37 37 36 36 35 34 34 34 36 37 36 35 35 34 34 35 36 37 37 36 35 33 32 30 28 27 26 24 24 24 24 26 27 27 27 26 28 29 28
2 3 2 3 3 4 5 4 3 3 4 4 5 6 5 7 11 13 12 9 8 10 13 13 17 24 31 36 38 37 34 30 28 25 20 16 14 15 18 21 23 24 24 23 22 22 22 22 22 23 24 25 26 28 30 32 34 35 36 36 36 36 35 35 34 35 37 37 35 35 34 33 34 36 36 37 37 35 34 33 31 29 27 26 25 24 23 23 23 25 26 26 26 25 26 27 27
6 4 4 4 3 1 1 2 2 2 4 4 5 7 7 6 6 8 11 10 11 13 13 12 18 28 34 35 34 33 34 32 30 29 26 22 20 21 21 22 24 25 25 24 24 23 23 23 23 24 24 25 26 27 28 29 30 32 33 34 34 35 35 35 36 37 38 37 35 35 34 34 36 36 36 36 35 34 32 31 29 27 26 25 24 23 22 22 23 24 25 24 24 24 25 26 25
10 9 8 9 8 4 2 4 2 2 3 4 3 8 11 7 4 7 11 10 10 15 15 13 20 30 36 37 34 30 28 25 22 23 28 28 26 23 23 24 25 26 25 25 24 24 24 24 24 23 23 24 26 26 27 28 29 30 32 33 34 35 36 36 37 38 38 37 36 35 35 36 36 35 35 35 33 31 30 28 27 27 25 24 24 23 22 22 23 24 24 24 24 24 24 24 24
Wind_Direction
328 333 333 341 345 347 350 12 67 4 64 95 327 131 236 227 202 217 202 294 292 306 147 144 142 151 159 133 153 138 121 155 162 128 175 177 151 155 159 159 163 167 166 161 166 167 162 161 166 172 167 163 154 249 302 312 201 171 163 162 168 175 178 179 181 182 193 195 160 118 84 44 43 63 72 75 78 79 76 78 82 84 84 84 84 86 88 88 86 83 79 76 75 73 69 64 57
332 333 333 336 342 349 344 30 77 339 51 94 267 170 246 307 316 206 198 222 163 114 110 122 127 135 127 107 111 94 105 168 169 130 133 147 147 154 161 162 166 167 165 166 171 171 168 167 173 181 182 189 214 252 268 188 173 178 174 165 168 182 189 190 191 192 201 204 173 163 136 95 64 69 77 81 85 85 82 78 80 84 86 85 83 83 84 83 83 82 80 78 78 73 67 63 57
335 334 334 334 340 0 41 38 75 80 76 147 261 240 234 209 219 224 212 183 136 115 108 113 109 105 92 91 79 79 136 239 164 140 138 148 152 157 162 163 165 166 167 172 174 175 176 172 177 185 190 202 176 154 156 150 159 176 181 170 166 175 179 172 168 164 167 156 141 144 134 120 88 69 71 76 85 84 86 85 81 83 85 85 84 84 84 84 84 83 81 78 75 69 64 61 57
341 343 341 338 341 10 57 47 112 118 114 189 260 263 219 185 214 239 198 151 142 122 96 104 90 57 48 92 78 84 116 109 151 156 155 156 157 158 160 162 165 167 170 178 179 178 181 178 179 186 194 196 155 119 138 142 150 170 176 172 169 169 164 150 146 135 128 134 130 123 122 121 103 85 77 72 82 80 83 94 89 86 87 88 88 87 87 87 86 83 81 77 73 69 65 60 57
343 350 349 344 347 21 74 77 104 99 176 186 157 262 240 201 197 212 157 154 168 169 33 113 101 85 85 96 80 108 118 121 140 160 166 161 157 159 162 163 165 168 173 180 183 181 183 183 185 190 198 198 172 112 127 137 149 164 165 165 167 165 160 150 140 131 120 122 118 115 119 119 110 103 96 86 80 72 80 97 95 92 92 91 91 90 91 91 89 84 81 78 76 71 66 62 57
345 351 351 1 46 73 88 93 81 28 223 175 129 259 236 200 181 168 158 166 209 237 244 221 163 134 98 78 76 129 126 124 141 154 169 165 160 162 165 164 165 169 175 181 186 186 185 189 193 199 207 212 203 116 124 131 142 160 159 157 158 160 159 150 137 129 122 122 117 114 118 118 119 116 108 99 83 73 82 95 98 96 95 95 94 94 95 92 90 86 83 80 78 75 69 66 60
344 350 349 17 58 38 87 127 209 236 231 174 160 241 209 186 173 154 151 154 203 229 231 202 146 130 103 91 101 141 135 132 143 149 169 170 165 166 168 164 166 171 176 183 189 191 190 195 200 209 222 229 237 139 127 124 128 151 160 157 153 156 156 149 141 137 133 129 121 116 119 118 122 121 111 103 90 84 88 96 100 98 99 100 100 100 99 96 93 89 85 80 77 75 70 65 57
340 351 355 39 42 28 89 114 240 212 226 213 224 235 191 174 171 163 163 158 161 198 201 173 143 111 147 154 158 169 148 140 147 155 172 176 171 170 172 167 167 173 179 185 191 195 197 203 211 221 231 242 261 245 127 127 132 140 161 168 158 156 156 153 149 142 138 132 126 120 118 119 125 123 113 107 101 96 97 104 106 104 106 107 107 108 107 103 101 97 91 84 80 77 70 63 52
330 338 348 53 65 27 53 360 279 240 267 260 265 230 179 171 173 173 176 155 161 171 172 171 166 348 169 168 183 175 159 149 151 157 173 183 180 175 177 173 171 175 180 187 193 198 202 211 223 231 235 240 256 280 316 141 144 144 161 177 174 166 158 157 153 144 140 137 139 131 116 118 127 127 121 118 116 112 107 111 112 113 116 115 116 115 114 114 113 112 104 93 85 83 77 68 53
335 1 41 64 83 26 360 306 307 265 262 275 271 210 170 177 178 178 177 147 157 165 175 190 241 184 162 171 176 172 167 154 148 153 170 184 186 183 183 178 175 180 186 191 194 200 208 218 224 232 236 236 243 270 306 243 161 157 166 178 179 166 156 156 153 149 149 143 143 139 125 121 123 128 131 128 127 134 131 124 121 122 126 126 128 126 125 127 129 130 116 102 81 70 60 40 13
6 32 91 71 57 62 246 257 291 274 274 303 280 203 181 182 174 175 183 168 168 168 182 194 222 166 153 183 185 180 172 157 145 148 163 178 188 191 190 187 183 186 194 201 205 208 219 228 224 225 228 232 238 253 293 287 208 179 168 178 175 160 154 156 154 155 156 145 139 140 136 129 123 127 138 141 133 139 148 146 139 135 138 139 138 137 136 142 148 148 125 78 40 22 14 5 354
65 14 72 99 158 214 197 209 277 288 309 322 220 188 190 185 175 195 186 182 180 181 193 187 208 172 142 223 200 195 181 164 155 154 166 175 186 195 194 194 192 193 195 205 218 222 231 236 227 221 220 224 231 241 270 270 236 209 174 173 174 166 160 156 152 154 155 146 144 146 143 137 133 133 142 150 141 138 144 151 153 150 149 148 147 145 148 160 166 165 135 44 18 6 1 356 351
143 137 89 128 184 157 155 183 284 317 322 276 195 167 176 189 211 217 186 173 181 182 200 195 205 184 165 249 207 204 190 178 170 164 175 180 188 196 199 199 199 199 196 202 214 227 237 238 228 223 219 220 226 230 251 256 244 231 192 175 174 171 166 162 155 155 159 154 153 149 139 135 135 138 145 153 155 153 146 150 158 157 156 154 155 155 161 174 180 188 134 9 5 360 357 356 357
137 143 119 130 93 104 147 168 293 167 265 257 193 174 176 196 231 225 192 169 191 192 206 202 196 190 204 231 224 219 198 188 184 176 181 190 196 199 204 206 206 206 202 205 210 221 232 237 229 227 226 223 229 228 234 248 242 241 222 188 176 176 177 173 166 163 162 159 159 144 131 128 128 137 148 156 163 157 149 152 159 161 162 162 163 165 174 187 196 210 315 341 346 352 357 359 1
155 130 106 116 73 333 170 149 221 152 239 233 170 189 186 203 224 220 206 187 202 213 210 187 185 197 229 197 245 238 209 202 195 188 189 194 204 206 210 212 214 214 212 212 211 217 224 232 231 231 232 230 236 232 230 236 233 237 237 214 189 186 187 182 178 174 170 167 167 157 146 146 144 149 157 165 165 155 153 158 161 165 170 172 172 177 188 198 212 243 301 323 337 344 349 353 353
166 133 70 106 141 239 201 157 135 135 250 222 169 182 177 210 211 209 213 203 211 215 199 179 189 206 221 194 275 267 212 213 202 197 198 200 207 210 214 216 219 220 220 220 217 219 221 225 229 231 233 234 241 238 232 229 228 230 232 229 210 200 197 190 187 187 185 179 174 171 167 165 162 164 169 173 172 167 166 167 168 174 180 182 182 190 199 209 226 257 296 319 330 334 337 341 344
154 132 73 116 179 200 196 177 170 163 251 243 184 180 162 202 204 199 210 212 220 211 202 198 205 213 218 213 247 252 215 214 210 205 205 207 211 212 215 218 221 222 223 224 222 223 222 222 224 229 231 233 239 241 236 228 228 226 225 230 222 212 207 200 196 198 199 191 185 182 180 179 174 173 178 178 178 179 178 176 177 182 187 189 192 200 206 217 237 270 296 316 323 326 332 335 338
154 114 118 192 201 197 182 180 186 163 260 230 197 191 172 162 184 183 196 213 216 212 214 222 225 221 223 228 227 239 224 214 214 214 213 214 216 217 219 221 223 226 226 226 225 223 222 221 223 226 230 233 237 239 236 230 230 227 223 226 227 223 215 208 205 205 208 203 196 191 188 187 183 181 185 186 186 187 186 184 185 189 193 195 201 210 218 228 250 279 294 308 313 321 328 331 332
161 103 148 216 204 211 193 181 186 171 152 185 187 204 192 176 175 175 192 212 195 206 224 232 238 228 225 229 222 229 226 218 220 220 222 223 225 227 227 227 228 230 231 231 229 226 224 223 225 226 229 233 236 238 236 233 232 230 225 222 226 229 225 220 212 208 212 210 203 198 195 192 189 188 190 192 194 194 193 193 194 195 197 200 206 215 224 232 253 273 285 299 309 320 326 327 325
180 134 186 234 209 234 229 200 200 191 176 166 177 200 200 191 177 179 197 203 194 215 223 227 237 233 227 227 223 227 224 221 225 225 230 232 233 235 234 235 236 237 237 237 235 231 228 227 228 228 230 232 236 239 238 237 234 231 228 223 224 228 231 231 222 217 216 215 210 206 203 199 198 197 197 200 200 199 200 202 203 203 203 206 212 218 226 233 247 264 279 294 308 318 321 319 318
182 167 193 225 190 216 236 214 210 196 180 173 172 171 192 195 182 188 183 154 241 237 228 230 241 245 236 231 230 229 224 221 225 228 233 235 236 236 238 241 244 247 245 243 241 237 234 232 231 230 232 233 235 239 240 241 239 235 229 224 225 225 229 232 230 230 228 222 219 217 214 210 208 206 205 206 206 206 204 207 209 210 211 213 218 222 229 238 248 261 277 293 307 317 318 316 314
174 204 220 202 172 189 237 202 191 187 178 176 168 160 184 185 189 202 185 178 238 242 240 245 251 255 253 247 241 232 226 224 227 230 233 236 238 238 237 237 239 243 244 244 243 243 240 237 235 233 233 234 236 239 241 242 243 241 237 229 227 227 227 228 229 236 241 236 231 230 226 221 217 214 213 213 213 211 209 210 211 214 217 220 223 227 233 240 251 264 279 294 305 313 315 316 316
204 242 242 212 196 195 210 190 189 190 187 187 175 175 181 174 201 214 202 216 234 241 260 274 266 254 249 253 248 238 232 229 231 237 238 239 242 243 242 239 238 239 242 244 246 246 245 241 238 236 236 236 237 238 240 241 242 243 243 237 231 231 230 228 227 233 243 246 243 242 237 232 226 221 220 221 220 218 215 215 216 218 221 225 228 230 237 243 254 266 281 293 302 310 314 316 317
208 256 244 223 221 215 207 199 200 201 207 216 195 185 183 181 207 214 216 233 241 247 262 275 282 260 244 244 248 248 244 240 242 246 247 249 251 252 251 249 247 246 245 245 246 246 246 244 240 238 238 238 238 239 241 242 242 242 243 241 234 232 233 231 230 231 240 247 246 245 244 240 234 229 225 225 227 225 223 221 221 222 223 228 232 234 240 247 257 266 279 291 301 310 314 315 313
212 232 236 210 230 227 225 215 207 210 219 220 205 207 207 207 220 224 230 240 245 248 258 263 267 264 246 242 247 250 250 247 247 247 247 250 250 248 246 246 246 246 246 245 245 245 245 245 241 239 239 239 240 240 242 244 244 244 243 242 237 234 235 233 233 235 239 245 246 244 243 243 241 236 231 229 230 231 230 229 226 225 226 230 234 238 243 249 258 266 276 289 300 308 311 310 311
215 219 225 204 235 225 223 219 205 209 218 210 212 241 243 232 247 255 248 248 247 247 253 257 257 256 249 248 250 251 252 252 251 250 250 250 248 246 243 241 241 244 247 246 245 244 243 243 241 239 238 239 241 240 241 244 246 247 246 244 240 236 235 234 234 238 240 242 244 243 241 242 243 241 237 235 234 234 234 235 232 228 228 232 237 241 245 251 257 266 275 286 294 301 303 303 311
206 211 218 220 245 235 224 220 211 212 224 217 214 250 253 241 242 253 257 243 241 244 249 253 253 251 250 254 257 256 257 258 258 255 252 250 248 250 247 243 243 245 247 247 245 242 241 240 239 238 238 238 240 240 241 243 246 248 248 246 243 238 236 234 233 236 238 238 240 239 237 236 240 241 240 239 237 235 236 238 237 233 231 234 239 242 247 253 258 265 273 281 288 294 297 300 307
191 160 210 245 258 258 246 226 220 210 231 228 213 270 269 253 231 220 218 229 244 252 256 257 254 253 255 257 260 259 259 262 259 254 253 254 255 256 255 252 250 248 249 251 249 244 239 237 237 237 238 238 238 239 241 243 247 248 249 246 244 240 235 234 232 233 235 237 238 237 234 231 234 239 240 241 240 238 239 240 240 239 235 234 238 243 248 254 258 264 271 278 286 291 295 298 302
209 134 206 285 318 284 245 224 218 200 218 217 180 306 271 242 235 227 237 248 258 262 265 265 258 255 256 259 260 259 260 261 256 255 260 262 262 261 260 261 258 255 256 256 254 249 242 236 235 236 237 238 237 238 240 242 246 247 247 246 243 238 234 234 232 231 234 236 239 238 236 232 231 236 240 243 243 241 241 241 243 244 240 236 237 241 246 253 258 263 270 275 282 287 292 296 299
206 132 176 285 358 301 234 209 185 184 212 174 148 274 258 242 244 243 248 250 254 258 259 261 261 259 260 263 264 262 262 260 258 263 270 269 266 263 262 263 260 259 259 257 255 253 246 238 234 234 236 238 238 239 241 241 244 245 245 244 242 236 232 234 233 232 235 237 240 241 241 239 236 237 240 244 246 245 244 243 244 246 244 240 238 240 244 252 258 264 268 272 277 282 289 293 293
158 116 135 187 216 281 247 195 165 172 225 177 152 255 259 259 257 251 253 249 249 252 256 259 261 263 264 266 265 265 265 263 263 267 269 269 267 265 263 261 259 258 258 255 256 256 252 243 235 233 235 238 239 240 241 242 243 243 242 242 240 236 232 231 232 234 235 237 240 242 243 245 245 244 243 244 247 248 248 247 247 247 245 242 240 242 245 250 257 263 267 270 275 280 286 291 291
120 194 189 166 203 273 308 202 176 189 214 175 162 248 266 269 267 253 247 241 242 246 253 257 260 263 263 264 263 265 266 265 265 265 266 266 265 264 261 258 258 256 256 256 256 256 253 246 238 234 234 236 239 240 242 243 244 243 241 240 239 238 234 229 229 232 234 235 236 238 242 244 246 248 247 246 247 249 250 250 249 247 245 243 242 244 247 251 256 261 264 268 273 278 283 288 289
264 211 193 175 192 224 310 253 205 209 188 182 200 231 264 270 244 231 228 232 239 245 255 258 260 264 263 264 264 264 267 267 267 268 269 268 266 266 261 257 257 257 256 255 255 254 253 249 241 237 235 236 238 240 241 242 244 244 241 240 238 237 235 231 229 231 231 232 233 236 239 242 244 246 248 248 248 249 250 251 249 246 245 246 246 247 249 252 256 259 261 265 270 275 281 286 288
226 211 186 183 166 166 227 288 236 216 195 218 217 225 250 248 213 230 234 239 248 251 260 264 263 266 266 267 267 266 267 268 270 274 275 273 270 268 263 257 257 258 256 254 254 254 253 251 246 241 238 237 238 239 240 242 245 246 245 242 240 239 237 235 232 231 230 230 232 235 238 241 244 245 248 250 251 253 253 253 251 247 246 247 248 249 251 252 255 257 259 262 268 273 278 283 286
179 156 163 162 142 183 208 245 222 190 189 232 218 233 254 255 254 261 264 263 266 266 267 267 264 262 264 265 265 265 267 269 274 278 278 275 270 266 262 255 254 257 258 256 253 252 252 250 247 244 241 239 239 239 239 240 242 245 245 244 242 240 237 235 232 230 229 229 231 233 238 241 243 245 247 250 253 256 258 258 256 251 249 249 251 252 252 253 255 257 259 261 266 272 276 279 280
165 155 168 180 192 219 223 249 238 176 182 227 219 227 253 258 255 255 260 259 260 266 268 266 263 261 261 262 264 266 269 272 276 279 277 274 269 263 258 253 253 256 259 258 254 252 251 249 246 243 241 240 240 239 238 237 237 239 241 242 241 239 237 235 232 230 229 229 230 232 236 240 242 244 246 249 253 256 259 261 258 255 253 252 253 254 256 257 258 259 261 263 266 269 271 273 275
149 152 187 194 203 236 238 253 284 174 192 241 229 226 251 260 260 255 262 260 254 259 261 263 262 261 261 263 265 267 270 274 277 276 273 272 268 259 254 252 252 255 258 257 253 251 250 248 247 245 241 240 239 238 237 236 235 235 236 238 238 238 237 236 234 232 231 232 233 233 236 239 242 243 245 249 253 256 260 261 260 258 256 256 257 259 260 259 258 258 259 261 262 263 266 269 272
141 153 189 204 211 237 244 240 305 82 191 268 253 239 253 261 266 259 257 245 237 250 254 258 261 262 262 262 265 268 272 274 275 273 270 269 266 258 252 251 251 254 256 256 253 251 251 250 249 247 244 241 240 240 239 238 238 237 238 239 239 240 240 240 239 238 239 239 239 238 238 240 243 244 245 249 253 258 260 261 261 259 258 258 259 260 259 257 256 254 255 256 259 262 265 267 267
168 153 164 219 216 254 282 257 277 125 186 263 275 257 256 263 269 262 251 233 237 250 252 255 259 262 263 262 265 269 272 274 273 270 267 265 264 260 254 252 252 254 254 254 254 253 252 251 251 250 247 243 242 241 240 240 240 241 242 243 244 246 246 246 247 247 247 245 244 243 242 242 244 246 248 250 253 256 258 259 259 258 256 257 259 259 258 257 256 255 256 257 259 262 264 265 265
209 176 172 225 159 150 268 272 268 227 194 244 306 292 270 266 277 268 245 238 243 252 255 256 257 259 263 264 266 268 269 271 272 269 266 265 263 260 255 252 251 252 252 251 252 252 251 251 251 250 249 248 245 243 242 242 243 244 246 248 249 250 251 251 250 250 248 247 245 245 245 245 246 249 249 251 253 255 257 258 259 257 256 257 259 260 260 259 259 260 260 260 261 262 265 267 268
219 207 205 215 163 186 227 263 314 320 321 346 15 303 277 239 258 265 244 235 242 250 252 256 255 256 262 264 265 265 265 267 269 269 268 267 265 260 256 254 253 253 253 253 252 252 252 252 252 252 252 251 250 248 245 244 244 245 246 247 248 249 250 249 248 247 246 245 245 245 246 248 249 251 251 252 254 255 257 258 259 258 257 257 258 260 262 263 263 262 263 263 263 264 268 270 270
229 220 208 198 183 204 219 187 19 354 318 317 82 280 283 222 237 262 261 235 245 251 249 252 257 258 259 261 263 264 265 267 268 269 269 269 267 263 258 255 254 254 254 254 254 254 253 254 254 254 254 253 252 251 249 246 244 245 245 245 245 246 246 247 247 247 247 247 248 248 248 249 250 252 253 254 255 256 258 259 259 260 260 259 260 262 264 264 264 265 266 266 266 267 268 268 268
237 206 175 177 184 201 203 157 118 287 270 298 85 219 274 282 242 252 268 269 261 259 253 251 258 262 259 259 264 266 267 269 269 269 269 268 267 265 262 258 256 255 254 254 254 253 253 253 253 254 255 254 254 253 250 248 246 245 245 245 246 247 248 249 249 251 252 253 254 254 252 252 252 253 255 256 256 257 258 258 259 260 261 261 262 263 264 265 267 268 268 267 267 268 265 264 266
241 151 148 172 181 186 179 139 174 259 293 311 27 154 271 279 249 223 236 257 260 260 261 258 260 263 262 263 266 268 270 271 272 272 271 269 269 267 265 263 261 260 258 256 254 252 252 252 252 254 255 255 254 253 251 249 248 247 247 247 248 249 250 252 253 255 256 257 258 257 256 256 255 255 255 256 257 257 257 258 259 260 261 262 262 263 265 267 268 268 267 266 265 265 263 263 265
238 152 151 174 170 162 144 115 151 337 13 287 258 152 263 274 260 217 229 249 254 250 251 255 258 262 264 265 268 271 271 271 272 273 273 271 272 270 268 269 270 267 263 259 255 253 253 252 253 253 253 254 254 253 252 251 250 249 249 249 250 251 252 254 256 257 257 258 258 258 258 257 257 256 255 256 256 256 257 258 258 259 260 261 262 264 266 267 267 267 267 266 265 265 265 265 265
211 140 98 97 107 101 118 127 137 112 242 248 234 173 230 271 262 190 218 247 250 249 246 252 258 261 263 266 269 272 273 273 272 270 270 271 272 272 272 273 272 269 265 261 258 254 252 251 251 250 250 251 252 252 252 252 252 250 249 250 251 252 253 254 256 257 258 258 259 259 259 258 258 258 257 257 256 256 256 257 258 259 260 261 262 263 265 265 266 267 268 268 268 267 267 266 265
130 109 70 58 58 56 76 108 113 131 248 250 229 183 198 269 266 171 196 225 221 231 244 255 258 260 263 266 270 273 273 273 273 272 271 271 270 271 271 272 270 266 261 257 256 254 252 251 249 248 247 247 248 250 251 252 253 252 251 251 252 253 254 255 256 257 257 259 259 260 261 261 261 261 260 260 259 258 257 257 257 258 259 260 261 262 264 265 266 267 268 269 268 267 267 267 267
118 96 100 97 30 50 63 69 126 192 240 252 230 183 186 240 263 192 236 267 234 221 234 244 253 261 267 270 274 278 277 275 275 275 274 271 267 265 265 270 273 268 260 252 250 251 251 250 249 247 245 244 245 246 249 251 251 252 253 253 254 254 254 255 256 258 258 259 260 262 263 264 264 263 263 261 261 260 260 259 259 258 259 259 260 262 263 265 266 266 267 268 268 268 267 266 266
147 128 143 172 213 206 193 193 182 206 242 256 211 160 187 237 256 253 255 271 261 240 237 241 252 264 270 273 274 275 275 274 274 275 274 268 260 254 257 273 281 273 260 251 248 248 249 248 248 247 245 243 244 245 247 249 250 252 254 255 256 257 256 256 257 258 259 260 261 262 263 264 264 264 264 264 264 265 264 263 262 262 261 261 262 263 264 265 266 266 267 268 269 269 268 267 267
181 173 176 189 195 210 216 203 180 204 246 260 172 136 212 261 261 255 249 248 246 245 244 246 255 263 269 273 273 272 270 267 268 268 268 264 257 253 258 274 284 277 261 251 248 246 248 248 247 247 246 244 244 245 246 248 250 252 254 256 257 258 257 258 258 259 260 261 262 263 264 264 265 265 266 267 268 269 268 268 267 266 265 264 263 263 263 264 265 266 267 268 268 269 269 269 269
192 187 174 193 199 209 218 207 207 212 242 271 146 135 212 232 248 251 245 254 259 259 258 258 263 267 270 273 275 274 272 269 268 268 268 266 263 262 264 267 271 271 260 251 248 246 246 246 245 246 246 245 244 244 245 247 248 250 252 255 257 257 258 259 260 261 260 261 262 262 263 264 265 265 267 269 270 271 271 270 270 269 268 268 266 264 263 263 264 264 265 266 267 268 269 269 269
197 145 149 211 207 174 216 279 225 214 248 267 195 193 230 240 287 279 258 274 285 277 271 265 266 268 267 269 270 271 273 273 275 275 274 271 267 266 265 260 254 255 256 251 250 248 245 244 243 244 245 246 246 245 244 245 247 248 250 253 256 257 258 259 259 260 261 261 262 263 264 264 265 267 268 269 270 270 271 271 272 272 271 270 267 266 264 263 263 264 265 265 266 267 268 269 270
166 166 184 212 175 133 157 273 338 70 251 243 202 245 277 293 287 273 249 248 259 269 268 256 255 261 262 262 265 268 270 272 277 279 277 276 272 266 261 248 238 243 251 251 255 257 253 248 244 244 244 245 245 245 245 245 246 248 250 252 255 257 258 259 260 261 262 263 263 264 265 266 267 268 270 271 271 271 271 271 272 273 272 271 269 267 265 264 264 264 265 265 266 267 268 268 269
113 195 188 110 62 92 139 231 333 71 240 255 229 241 253 258 272 288 253 235 232 236 251 251 250 257 262 263 264 265 265 268 275 276 272 272 270 261 249 235 231 240 249 254 260 262 259 253 247 244 243 243 244 245 245 245 245 247 250 252 254 256 258 260 261 263 263 263 263 263 265 266 267 269 269 270 270 271 272 273 274 275 275 274 272 268 265 264 265 266 266 267 268 269 270 270 270
130 220 161 115 154 195 159 197 222 216 236 269 247 240 238 229 244 266 257 228 224 229 243 255 259 259 262 263 265 265 263 264 268 268 265 266 264 254 242 233 233 243 254 260 262 258 253 252 249 245 242 241 244 245 245 244 244 247 250 252 254 256 258 260 261 262 261 261 262 263 264 266 267 267 267 268 269 271 272 273 274 275 276 276 274 270 267 266 267 267 267 267 268 269 270 270 270
240 273 162 140 216 195 174 202 203 205 235 253 256 246 237 231 235 246 247 223 208 227 238 249 254 253 255 258 262 264 264 261 258 260 258 257 263 260 251 247 247 251 259 259 254 250 248 249 249 247 242 239 240 241 241 242 244 247 250 253 255 256 257 259 259 260 260 260 262 263 264 265 265 266 267 268 269 271 272 273 275 275 274 273 272 269 267 267 267 267 266 266 266 265 265 266 268
193 216 185 170 207 150 176 229 152 164 227 239 263 260 253 245 220 225 236 219 202 216 228 237 247 252 257 260 263 268 271 268 263 259 253 255 274 271 254 253 255 254 256 254 249 248 247 247 247 247 243 239 236 236 239 241 244 248 250 251 253 254 255 256 257 258 259 259 260 260 261 262 263 265 266 268 269 271 272 273 274 273 270 268 268 268 268 267 265 265 266 266 265 262 262 263 266
190 203 197 191 192 166 210 230 159 135 215 197 221 259 264 257 185 198 221 214 205 218 225 235 246 251 258 264 269 274 277 278 275 265 254 258 273 266 247 250 254 252 254 252 249 248 248 249 248 246 245 240 236 235 236 239 242 245 247 248 250 253 254 255 256 256 257 257 257 257 259 261 262 264 266 267 269 270 271 272 271 269 267 265 264 263 263 262 262 264 266 267 267 266 265 264 263